Погода в Инукджуаке

Канада     58°27′05″N   78°06′23″W
темп.,
°C
ветер,
м/с
пор.,
м/с
влажн.,
%
обл.,
%
осадки,
мм/ч
давл.,
гПа
погр.,
м
17 мая, пн
пн1723:00−1вюв81478100 0.0 1014246
02:00+4юв122368100 0.0 1006532
05:00+3ю132393100 7.3 1002597
08:00+2ююз91498100 12.3 1001373
11:00+1юз81292100 0.9 1002659
14:00−1з111283100 1.1 1006811
17:00−2зсз111478100 0.1 10111144
20:00−2зсз91376100 0.3 10161151
18 мая, вт
вт1823:00−3сз81179100 0.1 1020978
02:00−4зсз588466 0.1 1022663
05:00−5зсз46808 0.0 1025396
08:00−4з236793 0.0 1026450
11:00−2юз4462100 0.0 1026595
14:00−1ююз445799 0.0 1026610
17:000ю4461100 0.0 1025565
20:00−1юв4667100 0.0 1024428
19 мая, ср
ср1923:00−1в5878100 0.0 1023297
02:00−1в578676 0.1 1022219
05:00−1в61080100 0.0 1020247
08:00+1в71076100 0.0 1019276
11:00+3в797173 0.0 1017364
14:00+5в8977100 0.1 1015465
17:00+7в7976100 0.1 1012406
20:00+7вюв588313 0.1 1010211
20 мая, чт
чт2023:00+3ююв6119521 0.0 1008178
02:00+3ююв9169631 0.0 1005246
05:00+4ююз71898100 0.6 1005341
08:00+3ююз51098100 1.5 1005215
11:00+3з61195100 0.0 1007319
14:00+3з10148287 0.1 1011596
17:00+2зсз8107566 0.0 1015700
20:00+1ссз787191 0.0 1018801
21 мая, пт
пт2123:000ссз687082 0.0 1021797
02:00−1с5776100 0.0 1024737
05:00−2ссз46785 0.0 1026436
08:00−1с55635 0.0 1027647
11:00+2ссз554614 0.0 1027930
14:00+3сз77382 0.0 10281053
17:00+2сз784676 0.0 1029874
20:000сз67525 0.0 1029638